Flag Weather past 2 weeks in Windsor, Ontario, Canada

Now
39 °F

Light rain. Mostly cloudy.


Feels Like: 29 °F
Forecast: N/A
Wind: 21 mph from North

Location: Windsor Weather Station

Current Time: Oct 31, 2014 at 6:28:02 PM

Latest Report: Oct 31, 2014 at 6:00 PM


Visibility: 8 mi

Pressure: 29.94 "Hg

Humidity: 87%

Dew point: 36 °F

Location of WindsorLocation

Historic Weather in Windsor — Graph

°F

Windsor temperature yesterday

Maximum temperature yesterday: 50 °F (at 2:00 PM)
Minimum temperature yesterday: 39 °F (at 4:00 AM)
Average temperature yesterday: 45 °F

Past Weeks' High & Low Weather Summary

 TemperatureHumidityPressure
High73 °F (Oct 27, 4:00 PM)100% (Oct 24, 5:00 AM)30.33 "Hg (Oct 24, 5:00 AM)
Low32 °F (Oct 19, 8:00 AM)24% (Oct 25, 6:00 PM)29.51 "Hg (Oct 17, 3:00 PM)
Average50 °F73%29.95 "Hg
* Reported Oct 16 5:00 PM — Oct 31 5:00 PM, Windsor, Weather by CustomWeather, © 2014

Note: Actual official high and low records may vary slightly from our data, if they occured in-between our weather recording intervals... More about our weather records

Advertising

Windsor weather history for previous 24 hours

 ConditionsComfort  
Time TempWeatherWind HumidityBarometerVisibility
5:00 PM
Oct 31
39 °FLight rain. Fog.22 mph93%29.91 "Hg6 mi
4:48 PM41 °FLight rain. Fog.16 mph87%29.90 "Hg6 mi
4:00 PM43 °FLight rain. Low clouds.18 mph87%29.89 "Hg8 mi
3:00 PM43 °FLight rain. Fog.13 mph93%29.87 "Hg6 mi
2:00 PM45 °FLight rain. Fog.8 mph87%29.87 "Hg6 mi
1:00 PM45 °FLight rain. Fog.3 mph87%29.88 "Hg5 mi
12:00 PM45 °FLight rain. Fog.5 mph87%29.89 "Hg5 mi
11:00 AM43 °FLight rain. Fog.6 mph93%29.89 "Hg5 mi
10:00 AM43 °FLight rain. Fog.9 mph87%29.90 "Hg6 mi
9:00 AM43 °FLight rain. Overcast.5 mph87%29.90 "Hg12 mi
8:00 AM45 °FLight rain. Mostly cloudy.7 mph76%29.90 "Hg12 mi
7:00 AM45 °FLight rain. Overcast.7 mph76%29.92 "Hg15 mi
6:00 AM45 °FLight rain. Mostly cloudy.8 mph76%29.93 "Hg15 mi
5:00 AM45 °FOvercast.9 mph76%29.94 "Hg15 mi
4:00 AM45 °FOvercast.8 mph76%29.96 "Hg15 mi
3:00 AM45 °FOvercast.6 mph76%29.98 "Hg15 mi
2:00 AM46 °FOvercast.7 mph71%29.99 "Hg15 mi
1:00 AM46 °FOvercast.7 mph71%30.01 "Hg15 mi
12:00 AM46 °FOvercast.8 mph71%30.02 "Hg15 mi
11:00 PM
Oct 30
46 °FOvercast.6 mph71%30.04 "Hg15 mi
10:00 PM46 °FOvercast.6 mph71%30.04 "Hg15 mi
9:00 PM46 °FOvercast.6 mph71%30.06 "Hg15 mi
8:00 PM45 °FPartly cloudy.6 mph76%30.07 "Hg15 mi
7:00 PM46 °FPartly sunny.6 mph66%30.07 "Hg15 mi
6:00 PM48 °FMostly cloudy.6 mph62%30.07 "Hg15 mi
Weather by CustomWeather, © 2014

See weather overviewHow to use our weather pages